Weather History for Fremont, NE

Change the Weather History Date:

Wednesday, December 18, 2013

  Actual Average Record
Temperature  
Mean Temperature 39 °F -  
Max Temperature 51 °F 36 °F 68 °F (1976)
Min Temperature 26 °F 17 °F -15 °F (1983)
Degree Days  
Heating Degree Days 26    
Moisture  
Dew Point 27 °F    
Average Humidity 69    
Maximum Humidity 95    
Minimum Humidity 45    
Precipitation  
Precipitation 0.00 in - - ()
Sea Level Pressure  
Sea Level Pressure 29.80 in    
Wind  
Wind Speed 7 mph (South)    
Max Wind Speed 13 mph    
Max Gust Speed 20 mph    
Visibility 10 miles    
Events      
Averages and records for this station are not official NWS values.
T = Trace of Precipitation, MM = Missing Value Source: NWS Daily Summary

Daily Weather History Graph

Daily Weather History Graph

Search for Another Location

Airport:

Trip Planner

Search our weather history database for the weather conditions in past years. The results will help you decide how hot, cold, wet, or windy it might be!

Date:

Astronomy

Dec. 18, 2013 Rise Set
Actual Time 7:47 AM CST 4:58 PM CST
Civil Twilight 7:16 AM CST 5:29 PM CST
Nautical Twilight 6:41 AM CST 6:04 PM CST
Astronomical Twilight 6:07 AM CST 6:38 PM CST
Moon 6:32 PM CST (12/18) 8:27 AM CST (12/18)
Length of Visible Light 10h 13m
Length of Day
9h 10m
Full, 98% of the Moon is Illuminated
Dec 18
Full
Dec 25
Last Quarter
Jan 1
New
Jan 7
First Quarter
Jan 15
Full

Hourly Weather History & Observations

Time (CST) Temp. Windchill Dew Point Humidity Pressure Visibility Wind Dir Wind Speed Gust Speed Precip Events Conditions
12:15 AM 32.4 °F 24.6 °F 23.0 °F 68% 30.06 in 10.0 mi SSE 9.2 mph - N/A   Clear
12:35 AM 32.7 °F 24.5 °F 23.4 °F 68% 30.04 in 10.0 mi SE 10.4 mph - N/A   Clear
12:55 AM 32.0 °F 24.8 °F 23.0 °F 69% 30.02 in 10.0 mi SE 8.1 mph - N/A   Clear
1:15 AM 32.4 °F 24.0 °F 23.2 °F 69% 30.00 in 10.0 mi SSE 10.4 mph - N/A   Clear
1:35 AM 33.1 °F 24.9 °F 23.0 °F 66% 30.00 in 10.0 mi SSE 10.4 mph - N/A   Clear
1:55 AM 32.9 °F 24.1 °F 23.0 °F 67% 29.98 in 10.0 mi SSE 11.5 mph - N/A   Clear
2:15 AM 32.9 °F 23.7 °F 23.0 °F 67% 29.97 in 10.0 mi SSE 12.7 mph 17.3 mph N/A   Clear
2:35 AM 33.1 °F 24.4 °F 23.2 °F 67% 29.96 in 10.0 mi SSE 11.5 mph 19.6 mph N/A   Clear
2:55 AM 32.5 °F 26.2 °F 23.2 °F 68% 29.96 in 10.0 mi SSE 6.9 mph - N/A   Clear
3:15 AM 32.2 °F 25.8 °F 23.4 °F 70% 29.95 in 10.0 mi SE 6.9 mph - N/A   Clear
3:35 AM 31.1 °F 26.4 °F 23.0 °F 72% 29.94 in 10.0 mi SE 4.6 mph - N/A   Clear
3:55 AM 30.9 °F 24.3 °F 23.7 °F 75% 29.93 in 10.0 mi SE 6.9 mph - N/A   Clear
4:15 AM 31.6 °F 25.1 °F 24.3 °F 74% 29.92 in 10.0 mi SSE 6.9 mph - N/A   Clear
4:35 AM 32.2 °F 25.8 °F 24.8 °F 74% 29.91 in 10.0 mi SSE 6.9 mph - N/A   Clear
4:55 AM 32.9 °F 25.9 °F 25.3 °F 74% 29.90 in 10.0 mi South 8.1 mph - N/A   Clear
5:15 AM 33.8 °F 27.0 °F 25.7 °F 72% 29.89 in 10.0 mi South 8.1 mph - N/A   Clear
5:35 AM 34.3 °F 27.7 °F 26.2 °F 72% 29.88 in 10.0 mi South 8.1 mph - N/A   Clear
5:55 AM 35.2 °F 27.6 °F 26.6 °F 71% 29.86 in 10.0 mi South 10.4 mph - N/A   Clear
6:15 AM 36.0 °F 30.3 °F 27.0 °F 70% 29.86 in 10.0 mi South 6.9 mph - N/A   Clear
6:35 AM 36.1 °F 29.9 °F 27.1 °F 70% 29.85 in 10.0 mi South 8.1 mph - N/A   Clear
6:55 AM 35.8 °F 29.4 °F 27.3 °F 71% 29.84 in 10.0 mi South 8.1 mph - N/A   Clear
7:15 AM 35.6 °F 29.2 °F 27.3 °F 72% 29.84 in 10.0 mi South 8.1 mph - N/A   Clear
7:35 AM 36.0 °F 29.0 °F 27.5 °F 71% 29.82 in 10.0 mi South 9.2 mph - N/A   Clear
7:55 AM 36.5 °F 31.8 °F 27.5 °F 70% 29.82 in 10.0 mi South 5.8 mph - N/A   Clear
8:15 AM 36.0 °F 29.6 °F 27.5 °F 71% 29.82 in 10.0 mi SSW 8.1 mph - N/A   Clear
8:35 AM 35.8 °F 30.1 °F 27.9 °F 73% 29.82 in 10.0 mi SSW 6.9 mph - N/A   Clear
8:55 AM 36.1 °F 30.6 °F 28.2 °F 73% 29.81 in 10.0 mi SSW 6.9 mph - N/A   Clear
9:15 AM 37.0 °F 31.0 °F 28.4 °F 71% 29.81 in 10.0 mi SSW 8.1 mph - N/A   Clear
9:35 AM 38.5 °F 34.1 °F 28.9 °F 69% 29.81 in 10.0 mi SSW 5.8 mph - N/A   Clear
9:55 AM 38.5 °F 32.7 °F 28.9 °F 69% 29.81 in 10.0 mi SSW 8.1 mph - N/A   Clear
10:15 AM 38.3 °F 33.9 °F 28.9 °F 69% 29.81 in 10.0 mi SW 5.8 mph - N/A   Clear
10:35 AM 39.4 °F 35.2 °F 29.3 °F 67% 29.81 in 10.0 mi SW 5.8 mph - N/A   Clear
10:55 AM 40.3 °F 34.9 °F 29.5 °F 65% 29.80 in 10.0 mi SSW 8.1 mph - N/A   Clear
11:15 AM 41.5 °F 35.9 °F 29.8 °F 63% 29.78 in 10.0 mi SSW 9.2 mph - N/A   Clear
11:35 AM 43.0 °F 38.2 °F 29.8 °F 60% 29.77 in 10.0 mi SSW 8.1 mph - N/A   Clear
11:55 AM 45.1 °F 40.3 °F 30.0 °F 55% 29.76 in 10.0 mi SSW 9.2 mph - N/A   Clear
12:15 PM 46.0 °F 41.0 °F 29.8 °F 53% 29.75 in 10.0 mi SSW 10.4 mph - N/A   Clear
12:35 PM 46.8 °F - 29.8 °F 52% 29.75 in 10.0 mi SSW 9.2 mph 17.3 mph N/A   Clear
12:55 PM 48.6 °F - 30.2 °F 49% 29.75 in 10.0 mi South 10.4 mph - N/A   Clear
1:15 PM 49.5 °F - 30.2 °F 48% 29.74 in 10.0 mi SSW 5.8 mph - N/A   Clear
1:35 PM 50.2 °F - 30.2 °F 46% 29.73 in 10.0 mi SSW 6.9 mph - N/A   Clear
1:55 PM 50.4 °F - 29.7 °F 45% 29.72 in 10.0 mi SSW 6.9 mph - N/A   Clear
2:15 PM 50.0 °F - 29.7 °F 46% 29.72 in 10.0 mi SSW 4.6 mph - N/A   Clear
2:35 PM 50.2 °F - 29.7 °F 45% 29.71 in 10.0 mi Calm Calm - N/A   Clear
2:55 PM 49.3 °F - 30.2 °F 48% 29.70 in 10.0 mi South 5.8 mph - N/A   Clear
3:15 PM 49.3 °F - 30.9 °F 49% 29.70 in 10.0 mi SSE 5.8 mph - N/A   Clear
3:35 PM 49.5 °F - 31.1 °F 49% 29.70 in 10.0 mi SE 3.5 mph - N/A   Clear
3:55 PM 50.9 °F - 31.1 °F 47% 29.70 in 10.0 mi Calm Calm - N/A   Clear
4:15 PM 51.1 °F - 31.1 °F 46% 29.70 in 10.0 mi Calm Calm - N/A   Clear
4:35 PM 50.0 °F - 31.1 °F 48% 29.70 in 10.0 mi Calm Calm - N/A   Clear
4:55 PM 47.3 °F - 31.6 °F 55% 29.71 in 10.0 mi Calm Calm - N/A   Clear
5:15 PM 45.1 °F 42.8 °F 31.8 °F 60% 29.72 in 10.0 mi NNE 4.6 mph - N/A   Clear
5:35 PM 39.9 °F - 29.8 °F 67% 29.72 in 10.0 mi Calm Calm - N/A   Clear
5:55 PM 38.7 °F - 29.7 °F 70% 29.72 in 10.0 mi Calm Calm - N/A   Clear
6:15 PM 36.5 °F - 29.3 °F 75% 29.73 in 10.0 mi Calm Calm - N/A   Clear
6:35 PM 35.6 °F - 28.9 °F 77% 29.72 in 10.0 mi Calm Calm - N/A   Clear
6:55 PM 32.2 °F - 28.2 °F 85% 29.72 in 10.0 mi Calm Calm - N/A   Clear
7:15 PM 34.2 °F - 29.7 °F 84% 29.72 in 10.0 mi Calm Calm - N/A   Clear
7:35 PM 35.4 °F - 29.8 °F 80% 29.72 in 10.0 mi Calm Calm - N/A   Clear
7:55 PM 31.5 °F - 28.4 °F 88% 29.72 in 10.0 mi Calm Calm - N/A   Clear
8:15 PM 30.9 °F - 28.0 °F 89% 29.72 in 10.0 mi Calm Calm - N/A   Clear
8:35 PM 30.2 °F - 26.6 °F 86% 29.73 in 10.0 mi Calm Calm - N/A   Clear
8:55 PM 30.2 °F - 26.8 °F 87% 29.73 in 10.0 mi Calm Calm - N/A   Clear
9:15 PM 30.7 °F - 26.8 °F 85% 29.73 in 10.0 mi Calm Calm - N/A   Clear
9:35 PM 29.3 °F - 26.4 °F 89% 29.74 in 10.0 mi Calm Calm - N/A   Clear
9:55 PM 28.2 °F - 25.7 °F 90% 29.74 in 10.0 mi Calm Calm - N/A   Clear
10:15 PM 28.4 °F - 25.7 °F 90% 29.74 in 10.0 mi Calm Calm - N/A   Clear
10:35 PM 30.2 °F - 26.6 °F 86% 29.74 in 10.0 mi Calm Calm - N/A   Clear
10:55 PM 27.3 °F - 25.2 °F 92% 29.74 in 10.0 mi Calm Calm - N/A   Clear
11:15 PM 27.3 °F - 25.5 °F 93% 29.74 in 10.0 mi Calm Calm - N/A   Clear
11:35 PM 27.5 °F - 26.2 °F 95% 29.75 in 10.0 mi Calm Calm - N/A   Clear
11:55 PM 26.6 °F 22.6 °F 24.8 °F 93% 29.75 in 10.0 mi West 3.5 mph - N/A   Clear